Upington, South Africa

11:33 PM SAST on August 24, 2016 (GMT +0200)
Upington

Weather History for FAUP - January, 2013

Change the Weather History Date:

Friday, January 18, 2013

  Actual Average Record
Temperature  
Mean Temperature 82 °F -  
Max Temperature 98 °F 93 °F 105 °F (2001)
Min Temperature 67 °F 65 °F 57 °F (2002)
Cooling Degree Days 18    
Growing Degree Days 32 (Base 50)    
Moisture  
Dew Point 62 °F    
Average Humidity 53    
Maximum Humidity 94    
Minimum Humidity 17    
Precipitation  
Precipitation 0.01 in 0.04 in - ()
Sea Level Pressure  
Sea Level Pressure 29.88 in    
Wind  
Wind Speed 6 mph ()    
Max Wind Speed 16 mph    
Max Gust Speed 36 mph    
Visibility 6.6 miles    
Events Rain , Thunderstorm    
Averages and records for this station are not official NWS values.
T = Trace of Precipitation, MM = Missing Value Source: Averaged Metar Reports

Daily Weather History Graph

Daily Weather History Graph

Search for Another Location

Airport or City:

Trip Planner

Search our weather history database for the weather conditions in past years. The results will help you decide how hot, cold, wet, or windy it might be!

Date:

Astronomy

Jan. 18, 2013 Rise Set
Actual Time 5:54 AM SAST 7:36 PM SAST
Civil Twilight 5:28 AM SAST 8:02 PM SAST
Nautical Twilight 4:57 AM SAST 8:33 PM SAST
Astronomical Twilight 4:24 AM SAST 9:06 PM SAST
Moon 12:26 PM SAST (1/18) 11:53 PM SAST (1/18)
Length of Visible Light 14h 33m
Length of Day
13h 41m
Waxing Crescent, 44% of the Moon is Illuminated
Jan 18
Waxing Crescent
Jan 19
First Quarter
Jan 27
Full
Feb 3
Last Quarter
Feb 10
New

Hourly Weather History & Observations

Time (SAST) Temp. Heat Index Dew Point Humidity Pressure Visibility Wind Dir Wind Speed Gust Speed Precip Events Conditions
12:00 AM 80.6 °F 81.5 °F 60.8 °F 51% 29.89 in - ENE 4.6 mph - N/A   Unknown
1:00 AM 78.8 °F - 60.8 °F 54% 29.89 in 6.2 mi East 8.1 mph - N/A   Mostly Cloudy
2:00 AM 79 °F - 63 °F 48%  in 25 mi East 8.1 mph - -   Scattered Clouds
2:00 AM 78.8 °F - 62.6 °F 57% 29.89 in 6.2 mi East 6.9 mph - N/A   Mostly Cloudy
2:13 AM 73.4 °F - 66.2 °F 78% 29.89 in 6.2 mi West 16.1 mph 35.7 mph N/A Rain , Thunderstorm Thunderstorms and Rain
3:00 AM 68.0 °F - 64.4 °F 88% 29.92 in 3.1 mi West 16.1 mph 29.9 mph N/A Rain , Thunderstorm Thunderstorms and Rain
3:29 AM 68.0 °F - 64.4 °F 88% 29.89 in 6.2 mi WNW 3.5 mph - N/A Rain Light Rain
4:00 AM 68.0 °F - 66.2 °F 94% 29.89 in 6.2 mi NNE 6.9 mph - N/A Rain Light Rain
5:00 AM 69 °F - 66 °F 89%  in 25 mi ENE 6.9 mph - -   Scattered Clouds
5:00 AM 68.0 °F - 66.2 °F 94% 29.89 in 6.2 mi ENE 5.8 mph - N/A   Mostly Cloudy
6:00 AM 69.8 °F - 64.4 °F 83% 29.92 in 6.2 mi NNE 6.9 mph - N/A   Partly Cloudy
7:00 AM 71.6 °F - 66.2 °F 83% 29.92 in 6.2 mi East 3.5 mph - N/A   Partly Cloudy
8:00 AM 76 °F - 67 °F 65%  in 25 mi NE 4.6 mph - -   Scattered Clouds
8:00 AM 75.2 °F - 66.2 °F 73% 29.92 in 6.2 mi NE 3.5 mph - N/A   Partly Cloudy
9:00 AM 80.6 °F 81.8 °F 62.6 °F 54% 29.92 in 6.2 mi North 11.5 mph - N/A   Partly Cloudy
10:00 AM 86.0 °F 87.3 °F 64.4 °F 48% 29.95 in 6.2 mi NNE 6.9 mph - N/A   Partly Cloudy
11:00 AM 87 °F - 62 °F 33%  in 16 mi North 8.1 mph - -   Scattered Clouds
11:00 AM 86.0 °F 86.1 °F 60.8 °F 43% 29.92 in 6.2 mi North 6.9 mph - N/A   Partly Cloudy
12:00 PM 87.8 °F 86.5 °F 57.2 °F 35% 29.92 in 6.2 mi NNE 2.3 mph - N/A   Partly Cloudy
1:00 PM 91.4 °F 91.4 °F 60.8 °F 36% 29.89 in 6.2 mi SW 2.3 mph - N/A   Partly Cloudy
2:00 PM 93 °F - 60 °F 23%  in 25 mi South 5.8 mph - -   Scattered Clouds
2:00 PM 93.2 °F 92.6 °F 59.0 °F 32% 29.86 in 6.2 mi South 4.6 mph - N/A   Scattered Clouds
3:00 PM 95.0 °F 95.2 °F 60.8 °F 32% 29.83 in 6.2 mi SW 5.8 mph - N/A   Mostly Cloudy
4:00 PM 96.8 °F 94.4 °F 53.6 °F 23% 29.80 in 6.2 mi SSW 4.6 mph - N/A   Scattered Clouds
5:00 PM 97 °F - 57 °F 17%  in 9 mi SW 6.9 mph - -   Scattered Clouds
6:00 PM 91.4 °F 89.1 °F 53.6 °F 28% 29.80 in 6.2 mi South 12.7 mph - N/A Rain Rain
7:00 PM 91.4 °F - 48.2 °F 23% 29.80 in 6.2 mi South 5.8 mph - N/A   Scattered Clouds
8:00 PM 86 °F - 60 °F 32%  in 25 mi NNW 4.6 mph - -   Scattered Clouds
8:00 PM 84.2 °F 83.8 °F 59.0 °F 42% 29.83 in 6.2 mi NNW 4.6 mph - N/A   Scattered Clouds
9:00 PM 84.2 °F 85.0 °F 62.6 °F 48% 29.83 in - West 4.6 mph - N/A   Unknown
10:00 PM 82.4 °F 82.9 °F 60.8 °F 48% 29.86 in - East 5.8 mph 21.9 mph N/A   Unknown
11:00 PM 82 °F - 63 °F 42%  in - NNE 8.1 mph - -  
11:00 PM 80.6 °F 81.8 °F 62.6 °F 54% 29.86 in - NNE 6.9 mph - N/A   Unknown